Volver al catálogo

DELTA 1 DEB

ActivoSSO
NORAD 21497·DEBRIS·🇺🇸 United States

Lanzado Jun 12, 1975 desde Vandenberg Space Force Base

Loading…

Próximos Pases (próximas 24 horas)

TLE

ActualizadoSource: Space-Track

Época: Sep 13, 2026, 18:35 UTC

1 21497U 75052FS  26256.77453223  .00000004  00000-0  95890-4 0  9995
2 21497 100.0290 183.7490 0058967 154.0782 262.3110 13.32999244719807

Sigue DELTA 1 DEB en tiempo real con AllMySat

Download on the App Store